Lakeville, MN

3:23 AM CST on February 10, 2016 (GMT -0600)
Airlake

Weather History for KLVN - July, 2013

Change the Weather History Date:

Friday, July 5, 2013

  Actual Average Record
Temperature  
Mean Temperature 75 °F -  
Max Temperature 84 °F 83 °F 101 °F (1948)
Min Temperature 66 °F 59 °F 1 °F (2000)
Cooling Degree Days 10    
Growing Degree Days 25 (Base 50)    
Moisture  
Dew Point 60 °F    
Average Humidity 59    
Maximum Humidity 83    
Minimum Humidity 45    
Precipitation  
Precipitation 0.00 in - - ()
Sea Level Pressure  
Sea Level Pressure 29.88 in    
Wind  
Wind Speed 9 mph (South)    
Max Wind Speed 16 mph    
Max Gust Speed 25 mph    
Visibility 10 miles    
Events Rain    
Averages and records for this station are not official NWS values.
T = Trace of Precipitation, MM = Missing Value Source: NWS Daily Summary

Daily Weather History Graph

Daily Weather History Graph

Search for Another Location

Airport or City:

Trip Planner

Search our weather history database for the weather conditions in past years. The results will help you decide how hot, cold, wet, or windy it might be!

Date:

Astronomy

Jul. 05, 2013 Rise Set
Actual Time 5:34 AM CDT 9:00 PM CDT
Civil Twilight 4:57 AM CDT 9:37 PM CDT
Nautical Twilight 4:09 AM CDT 10:24 PM CDT
Astronomical Twilight 3:08 AM CDT 11:25 PM CDT
Moon 3:36 AM CDT (7/5) 6:53 PM CDT (7/5)
Length of Visible Light 16h 39m
Length of Day
15h 26m
Waning Crescent, 6% of the Moon is Illuminated
Jul 5
Waning Crescent
Jul 8
New
Jul 15
First Quarter
Jul 22
Full
Jul 29
Last Quarter

Hourly Weather History & Observations

Time (CDT) Temp. Heat Index Dew Point Humidity Pressure Visibility Wind Dir Wind Speed Gust Speed Precip Events Conditions
12:11 AM 71.6 °F - 57.2 °F 60% 29.92 in 10.0 mi South 6.9 mph - N/A   Clear
12:30 AM 71.6 °F - 57.2 °F 60% 29.92 in 10.0 mi South 8.1 mph - N/A   Clear
12:51 AM 71.6 °F - 57.2 °F 60% 29.91 in 10.0 mi South 9.2 mph - N/A   Clear
1:11 AM 71.6 °F - 57.2 °F 60% 29.92 in 10.0 mi South 8.1 mph - N/A   Clear
1:30 AM 71.6 °F - 57.2 °F 60% 29.92 in 10.0 mi South 8.1 mph - N/A   Clear
1:51 AM 71.6 °F - 57.2 °F 60% 29.92 in 10.0 mi South 11.5 mph 16.1 mph N/A   Clear
2:11 AM 71.6 °F - 57.2 °F 60% 29.91 in 10.0 mi South 10.4 mph - N/A   Clear
2:30 AM 71.6 °F - 57.2 °F 60% 29.92 in 10.0 mi South 9.2 mph - N/A   Clear
2:51 AM 69.8 °F - 57.2 °F 64% 29.92 in 10.0 mi South 9.2 mph - N/A   Clear
3:11 AM 69.8 °F - 57.2 °F 64% 29.92 in 10.0 mi South 10.4 mph - N/A   Clear
3:31 AM 69.8 °F - 57.2 °F 64% 29.91 in 10.0 mi South 8.1 mph - N/A   Clear
3:51 AM 69.8 °F - 57.2 °F 64% 29.92 in 10.0 mi South 6.9 mph - N/A   Clear
4:10 AM 68.0 °F - 57.2 °F 68% 29.92 in 10.0 mi South 6.9 mph - N/A   Clear
4:31 AM 66.2 °F - 57.2 °F 73% 29.92 in 10.0 mi South 5.8 mph - N/A   Clear
4:51 AM 66.2 °F - 57.2 °F 73% 29.92 in 10.0 mi South 8.1 mph - N/A   Clear
5:10 AM 68.0 °F - 57.2 °F 68% 29.92 in 10.0 mi South 8.1 mph - N/A   Clear
5:31 AM 66.2 °F - 57.2 °F 73% 29.92 in 10.0 mi South 8.1 mph - N/A   Clear
5:51 AM 66.2 °F - 57.2 °F 73% 29.92 in 10.0 mi South 6.9 mph - N/A   Clear
6:10 AM 66.2 °F - 57.2 °F 73% 29.92 in 10.0 mi South 5.8 mph - N/A   Clear
6:31 AM 68.0 °F - 57.2 °F 68% 29.92 in 10.0 mi South 9.2 mph - N/A   Clear
6:51 AM 69.8 °F - 57.2 °F 64% 29.91 in 10.0 mi South 6.9 mph - N/A   Clear
7:11 AM 71.6 °F - 57.2 °F 60% 29.92 in 10.0 mi South 10.4 mph - N/A   Scattered Clouds
7:31 AM 71.6 °F - 57.2 °F 60% 29.91 in 10.0 mi South 12.7 mph 16.1 mph N/A   Scattered Clouds
7:50 AM 68.0 °F - 60.8 °F 78% 29.91 in 2.0 mi South 16.1 mph 21.9 mph N/A Rain Heavy Rain
8:11 AM 66.2 °F - 60.8 °F 83% 29.92 in 10.0 mi SSE 10.4 mph - N/A Rain Light Rain
8:31 AM 68.0 °F - 59.0 °F 73% 29.91 in 10.0 mi SSE 9.2 mph - N/A   Overcast
8:50 AM 69.8 °F - 60.8 °F 73% 29.91 in 10.0 mi SSE 6.9 mph - N/A   Overcast
9:11 AM 71.6 °F - 60.8 °F 69% 29.90 in 10.0 mi SSE 9.2 mph - N/A   Mostly Cloudy
9:31 AM 73.4 °F - 60.8 °F 65% 29.90 in 10.0 mi SSE 8.1 mph - N/A   Scattered Clouds
9:50 AM 75.2 °F - 60.8 °F 61% 29.89 in 10.0 mi South 10.4 mph 18.4 mph N/A   Scattered Clouds
10:11 AM 77.0 °F - 62.6 °F 61% 29.89 in 10.0 mi SSE 10.4 mph 16.1 mph N/A   Clear
10:30 AM 78.8 °F - 62.6 °F 57% 29.88 in 10.0 mi South 9.2 mph 20.7 mph N/A   Clear
10:51 AM 78.8 °F - 62.6 °F 57% 29.88 in 10.0 mi South 10.4 mph 16.1 mph N/A   Clear
11:11 AM 80.6 °F 81.8 °F 62.6 °F 54% 29.88 in 10.0 mi South 11.5 mph - N/A   Scattered Clouds
11:31 AM 80.6 °F 81.8 °F 62.6 °F 54% 29.88 in 10.0 mi South 12.7 mph 19.6 mph N/A   Clear
11:51 AM 82.4 °F 83.4 °F 62.6 °F 51% 29.88 in 10.0 mi South 12.7 mph 19.6 mph N/A   Clear
12:10 PM 82.4 °F 82.9 °F 60.8 °F 48% 29.88 in 10.0 mi South 11.5 mph 23.0 mph N/A   Clear
12:31 PM 82.4 °F 82.9 °F 60.8 °F 48% 29.87 in 10.0 mi South 13.8 mph 25.3 mph N/A   Clear
12:51 PM 82.4 °F 82.9 °F 60.8 °F 48% 29.86 in 10.0 mi South 16.1 mph 25.3 mph N/A   Clear
1:10 PM 84.2 °F 84.4 °F 60.8 °F 45% 29.86 in 10.0 mi South 15.0 mph 23.0 mph N/A   Clear
1:31 PM 82.4 °F 82.9 °F 60.8 °F 48% 29.86 in 10.0 mi South 11.5 mph 19.6 mph N/A   Clear
1:51 PM 82.4 °F 82.9 °F 60.8 °F 48% 29.86 in 10.0 mi South 6.9 mph - N/A   Scattered Clouds
2:10 PM 80.6 °F 81.5 °F 60.8 °F 51% 29.86 in 10.0 mi South 9.2 mph - N/A   Scattered Clouds
2:31 PM 80.6 °F 81.5 °F 60.8 °F 51% 29.86 in 10.0 mi SSW 5.8 mph - N/A   Mostly Cloudy
2:50 PM 80.6 °F 81.8 °F 62.6 °F 54% 29.86 in 10.0 mi South 10.4 mph - N/A   Scattered Clouds
3:11 PM 80.6 °F 81.8 °F 62.6 °F 54% 29.86 in 10.0 mi South 6.9 mph - N/A   Scattered Clouds
3:31 PM 80.6 °F 81.8 °F 62.6 °F 54% 29.86 in 10.0 mi South 6.9 mph - N/A   Clear
3:50 PM 78.8 °F - 64.4 °F 61% 29.86 in 10.0 mi South 5.8 mph - N/A   Scattered Clouds
4:11 PM 78.8 °F - 64.4 °F 61% 29.86 in 10.0 mi South 5.8 mph - N/A   Scattered Clouds
4:31 PM 80.6 °F 82.3 °F 64.4 °F 58% 29.86 in 10.0 mi South 6.9 mph - N/A   Scattered Clouds
4:50 PM 82.4 °F 83.9 °F 64.4 °F 54% 29.85 in 10.0 mi South 9.2 mph - N/A   Clear
5:11 PM 84.2 °F 85.6 °F 64.4 °F 51% 29.84 in 10.0 mi South 9.2 mph - N/A   Clear
5:31 PM 84.2 °F 85.0 °F 62.6 °F 48% 29.84 in 10.0 mi South 12.7 mph 20.7 mph N/A   Scattered Clouds
5:50 PM 84.2 °F 85.0 °F 62.6 °F 48% 29.84 in 10.0 mi South 9.2 mph 20.7 mph N/A   Clear
6:11 PM 84.2 °F 85.0 °F 62.6 °F 48% 29.83 in 10.0 mi South 13.8 mph 20.7 mph N/A   Clear
6:31 PM 82.4 °F 82.9 °F 60.8 °F 48% 29.83 in 10.0 mi South 12.7 mph 20.7 mph N/A   Scattered Clouds
6:50 PM 82.4 °F 82.9 °F 60.8 °F 48% 29.83 in 10.0 mi South 12.7 mph 19.6 mph N/A   Clear
7:11 PM 82.4 °F 82.9 °F 60.8 °F 48% 29.83 in 10.0 mi South 12.7 mph 19.6 mph N/A   Clear
7:30 PM 82.4 °F 82.9 °F 60.8 °F 48% 29.84 in 10.0 mi South 10.4 mph 20.7 mph N/A   Clear
7:51 PM 80.6 °F 81.5 °F 60.8 °F 51% 29.84 in 10.0 mi South 12.7 mph 17.3 mph N/A   Clear
8:11 PM 80.6 °F 81.5 °F 60.8 °F 51% 29.84 in 10.0 mi South 11.5 mph 18.4 mph N/A   Clear
8:30 PM 80.6 °F 81.5 °F 60.8 °F 51% 29.84 in 10.0 mi South 10.4 mph 17.3 mph N/A   Clear
8:51 PM 78.8 °F - 62.6 °F 57% 29.84 in 10.0 mi South 9.2 mph - N/A   Clear
9:11 PM 78.8 °F - 62.6 °F 57% 29.84 in 10.0 mi South 6.9 mph - N/A   Clear
9:30 PM 77.0 °F - 62.6 °F 61% 29.85 in 10.0 mi South 9.2 mph - N/A   Clear
9:51 PM 77.0 °F - 60.8 °F 57% 29.86 in 10.0 mi South 8.1 mph - N/A   Clear
10:11 PM 75.2 °F - 60.8 °F 61% 29.87 in 10.0 mi South 9.2 mph - N/A   Clear
10:30 PM 75.2 °F - 60.8 °F 61% 29.87 in 10.0 mi South 8.1 mph - N/A   Clear
10:51 PM 75.2 °F - 60.8 °F 61% 29.86 in 10.0 mi South 9.2 mph - N/A   Clear
11:11 PM 75.2 °F - 60.8 °F 61% 29.87 in 10.0 mi South 10.4 mph - N/A   Clear
11:30 PM 75.2 °F - 60.8 °F 61% 29.87 in 10.0 mi South 9.2 mph - N/A   Clear
11:51 PM 75.2 °F - 60.8 °F 61% 29.88 in 10.0 mi South 11.5 mph 16.1 mph N/A   Clear